Temp
9 10 12 13 14 15 15 16 13 11 11 9 9 9 9 10 9 9 10 10 10 10 9 8 8 8 7 6 9 8 9 9 9 8 9 8 7 7 6 6 9 9 9 9
10 11 13 13 14 14 15 16 12 9 10 8 9 9 10 9 10 9 10 10 10 10 9 8 8 8 7 6 8 8 8 9 9 8 9 8 7 8 8 7 9 9 9 9
12 13 13 13 14 13 15 15 13 12 11 9 9 9 9 9 8 9 9 9 10 9 9 8 8 8 7 7 8 9 8 9 9 8 8 8 8 8 8 8 9 9 9 9
12 13 13 13 13 13 15 14 13 11 10 10 10 11 9 9 8 9 9 10 9 10 10 9 9 9 8 7 7 9 9 8 9 9 9 8 8 8 7 8 7 9 9 9
12 13 12 12 13 14 15 14 14 10 13 11 12 12 10 9 8 9 9 8 9 10 10 10 9 9 9 8 7 9 10 9 9 9 9 9 9 9 8 7 8 9 9 9
13 12 12 12 13 14 14 14 14 14 15 14 14 14 10 9 10 10 9 9 10 10 11 10 10 9 9 8 8 7 10 9 9 8 9 9 8 8 8 9 9 9 9 9
11 11 12 12 13 13 13 14 14 15 16 17 16 17 14 10 10 11 11 11 11 12 11 11 10 9 9 9 8 7 10 10 9 9 9 9 9 9 9 9 9 9 10 9
12 13 12 12 13 13 13 14 14 15 18 19 17 18 15 13 12 11 12 11 11 11 12 12 10 9 9 9 8 8 9 10 10 10 9 9 9 9 9 9 9 9 8 9
13 13 12 12 12 13 14 13 14 15 17 15 14 15 14 14 13 12 11 10 9 10 11 11 11 9 9 8 8 7 9 10 10 10 10 10 9 9 9 9 9 9 9 9
12 13 13 12 12 13 14 14 15 15 17 18 16 12 16 13 13 13 11 11 9 10 11 11 11 11 9 9 9 9 9 9 10 10 10 10 10 9 9 9 9 9 9 9
11 12 13 12 12 13 13 14 15 16 17 18 19 15 14 15 13 12 12 11 10 10 10 11 11 10 10 9 10 8 8 9 9 10 10 10 10 10 9 9 9 9 9 9
10 12 13 13 13 13 14 14 15 15 16 17 17 13 11 13 13 12 12 11 11 11 10 9 10 9 8 9 9 8 9 8 8 9 9 9 10 10 10 9 9 9 9 9
10 11 13 12 13 13 13 14 14 15 16 17 18 13 13 11 11 12 11 10 12 11 10 10 9 9 9 9 9 9 8 8 8 8 9 9 9 9 9 9 9 9 9 9
9 11 13 13 13 13 13 13 14 15 16 17 17 13 11 11 10 12 11 10 12 10 9 9 9 9 10 9 9 9 8 8 8 8 8 8 8 9 9 10 9 9 9 9
9 10 11 10 10 13 14 13 14 15 16 16 16 15 13 12 14 13 13 12 11 10 11 10 10 10 9 9 9 9 9 9 8 7 8 8 8 8 9 9 9 9 9 9
9 9 10 9 10 13 14 14 14 14 15 15 15 14 10 11 13 14 13 11 10 11 11 10 10 9 9 9 9 9 9 8 8 7 7 7 8 8 8 8 8 8 9 9
7 7 10 12 12 12 13 13 14 14 14 15 14 13 10 10 12 13 13 11 11 10 11 10 10 10 10 10 10 8 8 8 8 8 7 7 7 8 8 8 8 8 8 8
7 6 6 8 9 13 8 9 10 11 12 12 11 11 9 12 13 13 12 11 11 11 11 10 10 10 10 10 9 9 8 8 8 7 7 7 7 7 8 8 8 7 7 7
7 6 5 7 6 7 9 8 9 10 10 10 11 9 8 11 12 12 11 11 11 11 11 11 10 10 10 9 9 8 8 8 7 7 7 7 7 7 7 7 7 7 6 7
7 7 7 9 9 8 7 6 7 7 9 7 8 8 7 11 11 10 11 11 11 11 11 11 10 10 10 9 9 8 8 8 8 8 8 7 7 8 6 7 6 6 6 7
7 7 9 9 8 4 5 7 6 8 6 6 7 7 7 8 9 9 9 10 10 9 9 10 10 10 10 9 9 9 8 8 8 8 8 7 7 8 7 7 7 7 7 6
7 7 8 8 8 4 5 6 6 5 5 5 5 6 6 7 8 8 9 9 9 8 8 9 9 9 9 9 8 7 7 7 7 7 7 7 7 7 7 7 7 7 7 7
5 6 5 6 5 4 4 5 6 4 4 6 6 5 6 6 8 8 8 8 7 7 7 7 7 7 6 6 7 6 6 6 7 7 7 7 6 7 7 7 6 7 7 7
5 4 5 5 4 3 3 4 4 5 5 5 6 4 4 6 6 6 6 6 6 7 6 5 6 6 6 6 5 6 6 6 6 6 6 6 6 6 6 6 6 7 7 8
5 4 4 5 3 3 3 2 3 4 4 5 5 5 3 4 6 6 5 5 5 4 4 4 4 4 4 4 4 4 4 5 5 5 5 5 5 5 5 6 7 7 7 7
4 4 4 5 4 3 2 3 3 3 2 4 4 4 4 5 5 5 4 5 5 4 3 3 3 4 4 4 3 4 4 5 5 5 5 5 5 6 6 6 7 6 7 7
Height
3150 3154 3153 3156 3158 3158 3157 3156 3156 3162 3165 3170 3168 3174 3179 3183 3187 3193 3199 3202 3205 3208 3209 3212 3214 3215 3216 3215 3216 3219 3219 3222 3223 3224 3227 3229 3231 3233 3234 3237 3238 3239 3241 3243
3152 3151 3154 3156 3158 3158 3158 3155 3156 3164 3166 3169 3172 3175 3177 3179 3182 3188 3197 3200 3203 3207 3207 3211 3212 3216 3217 3216 3216 3218 3220 3223 3225 3226 3228 3230 3232 3233 3235 3236 3238 3240 3241 3243
3148 3150 3153 3155 3156 3158 3156 3155 3154 3159 3161 3169 3171 3169 3175 3177 3182 3186 3192 3195 3202 3203 3207 3208 3212 3216 3216 3217 3217 3218 3220 3223 3226 3228 3229 3231 3233 3234 3236 3237 3239 3240 3242 3244
3148 3149 3151 3153 3155 3158 3155 3156 3154 3155 3156 3165 3167 3170 3170 3172 3177 3182 3186 3194 3195 3203 3205 3208 3211 3215 3219 3219 3218 3219 3221 3222 3225 3227 3230 3231 3233 3235 3237 3239 3240 3241 3243 3244
3146 3147 3150 3152 3154 3156 3155 3157 3152 3139 3157 3160 3167 3167 3167 3170 3176 3176 3185 3189 3193 3199 3203 3209 3213 3214 3219 3221 3221 3219 3221 3223 3225 3226 3230 3232 3233 3235 3238 3239 3240 3242 3242 3244
3143 3146 3148 3150 3152 3154 3156 3156 3154 3154 3155 3156 3156 3160 3165 3160 3167 3176 3183 3188 3193 3197 3204 3205 3210 3212 3216 3221 3222 3220 3221 3223 3226 3227 3229 3232 3233 3236 3237 3238 3239 3241 3243 3244
3143 3144 3146 3148 3150 3152 3157 3156 3156 3155 3152 3147 3145 3151 3154 3160 3164 3169 3178 3185 3192 3198 3202 3206 3208 3208 3213 3216 3221 3220 3220 3222 3225 3227 3228 3231 3234 3235 3237 3238 3239 3241 3243 3245
3140 3141 3142 3145 3147 3150 3154 3155 3153 3151 3143 3139 3146 3148 3151 3159 3164 3169 3173 3180 3188 3192 3199 3204 3206 3204 3208 3211 3218 3220 3219 3221 3224 3226 3228 3230 3233 3235 3236 3238 3239 3241 3242 3244
3135 3136 3138 3143 3146 3149 3151 3152 3153 3150 3143 3153 3152 3150 3153 3159 3162 3167 3171 3174 3178 3186 3194 3201 3203 3202 3210 3214 3213 3218 3218 3220 3222 3224 3227 3230 3232 3234 3236 3237 3239 3241 3242 3243
3135 3133 3134 3141 3145 3146 3146 3152 3152 3149 3142 3132 3140 3150 3142 3150 3158 3163 3167 3171 3175 3182 3188 3198 3200 3201 3205 3209 3207 3215 3216 3219 3221 3223 3226 3227 3230 3232 3235 3237 3238 3239 3241 3243
3135 3134 3135 3138 3139 3142 3147 3146 3147 3146 3140 3137 3129 3138 3145 3140 3150 3157 3164 3168 3171 3174 3185 3193 3200 3194 3196 3203 3206 3211 3214 3217 3220 3222 3225 3227 3228 3230 3232 3235 3236 3239 3240 3241
3136 3134 3131 3131 3135 3139 3141 3144 3144 3143 3144 3135 3140 3149 3136 3147 3150 3153 3161 3166 3166 3173 3177 3180 3192 3193 3190 3196 3203 3208 3214 3215 3218 3220 3223 3224 3226 3228 3230 3232 3234 3237 3238 3240
3134 3132 3128 3133 3132 3136 3137 3140 3142 3143 3142 3138 3136 3143 3145 3150 3153 3157 3158 3161 3164 3170 3176 3180 3185 3183 3183 3195 3201 3205 3209 3211 3214 3219 3219 3221 3224 3226 3228 3229 3231 3234 3236 3238
3132 3129 3127 3124 3125 3131 3135 3137 3139 3138 3141 3139 3138 3141 3147 3147 3149 3152 3155 3158 3163 3168 3172 3176 3179 3183 3185 3194 3199 3203 3205 3206 3209 3213 3217 3218 3221 3223 3225 3227 3229 3231 3233 3235
3134 3130 3129 3126 3130 3125 3128 3134 3135 3137 3137 3138 3139 3136 3138 3138 3142 3148 3153 3157 3163 3167 3169 3173 3177 3181 3188 3193 3197 3200 3201 3203 3202 3203 3208 3212 3217 3219 3221 3223 3225 3228 3230 3232
3131 3129 3128 3128 3126 3123 3124 3128 3134 3137 3138 3137 3137 3142 3137 3136 3133 3141 3148 3153 3157 3160 3165 3169 3173 3177 3182 3186 3190 3192 3194 3197 3197 3197 3200 3205 3212 3214 3217 3219 3221 3222 3225 3228
3131 3130 3127 3122 3124 3127 3127 3129 3131 3133 3135 3137 3137 3134 3133 3124 3143 3137 3145 3151 3156 3159 3164 3166 3170 3175 3178 3183 3186 3189 3191 3193 3193 3195 3198 3201 3205 3209 3212 3214 3216 3217 3219 3222
3132 3130 3129 3130 3128 3123 3126 3126 3132 3134 3137 3137 3142 3140 3127 3123 3134 3138 3145 3150 3155 3160 3162 3166 3168 3172 3175 3179 3182 3184 3186 3188 3189 3191 3194 3196 3197 3200 3205 3207 3209 3210 3213 3217
3131 3132 3129 3134 3133 3134 3131 3130 3137 3138 3135 3138 3138 3135 3131 3131 3134 3142 3146 3151 3154 3158 3160 3163 3166 3168 3170 3175 3178 3179 3183 3185 3187 3189 3191 3194 3195 3199 3201 3200 3199 3201 3204 3209
3129 3131 3132 3129 3123 3124 3129 3134 3137 3137 3137 3126 3139 3138 3136 3137 3141 3142 3145 3149 3152 3154 3155 3159 3160 3162 3167 3168 3171 3175 3178 3181 3184 3186 3189 3190 3192 3192 3192 3193 3194 3196 3202 3206
3126 3127 3126 3125 3127 3131 3131 3130 3131 3138 3138 3136 3142 3139 3140 3139 3139 3142 3145 3148 3150 3151 3154 3157 3159 3160 3163 3165 3167 3170 3173 3176 3179 3182 3184 3187 3188 3190 3191 3193 3194 3197 3200 3201
3121 3125 3126 3126 3127 3131 3133 3137 3138 3137 3135 3135 3138 3139 3137 3137 3139 3142 3144 3145 3147 3150 3152 3155 3158 3159 3161 3162 3164 3166 3168 3171 3173 3176 3179 3181 3185 3187 3189 3191 3194 3197 3198 3200
3129 3128 3127 3130 3129 3131 3133 3133 3133 3135 3135 3136 3137 3140 3135 3136 3136 3139 3141 3143 3145 3147 3149 3150 3153 3154 3157 3158 3160 3162 3162 3167 3169 3171 3173 3176 3180 3183 3186 3188 3190 3192 3193 3196
3126 3126 3129 3131 3130 3130 3130 3130 3132 3132 3132 3134 3136 3138 3139 3135 3136 3137 3139 3141 3142 3144 3145 3148 3149 3151 3153 3155 3157 3159 3161 3162 3165 3167 3170 3171 3174 3178 3181 3183 3186 3188 3189 3191
3126 3125 3128 3130 3129 3129 3129 3128 3129 3130 3131 3132 3133 3134 3135 3134 3135 3137 3138 3139 3140 3142 3144 3145 3147 3148 3150 3152 3155 3157 3159 3161 3163 3166 3168 3170 3171 3173 3175 3179 3181 3184 3184 3186
3123 3125 3127 3127 3127 3128 3127 3125 3127 3128 3129 3129 3131 3132 3132 3132 3133 3134 3136 3137 3138 3140 3142 3144 3145 3147 3149 3151 3152 3154 3156 3158 3160 3162 3165 3166 3168 3170 3172 3174 3176 3178 3179 3180
Wind_Speed
16 18 25 20 21 7 9 14 18 14 15 24 22 17 25 27 32 26 24 23 21 19 18 18 16 14 14 14 16 17 14 12 14 13 11 9 9 8 11 11 12 11 9 10
14 22 19 19 17 15 11 5 12 14 20 12 10 19 26 29 23 32 27 27 24 22 21 19 19 15 13 13 15 15 15 12 13 15 14 12 8 9 9 7 9 9 10 10
17 13 19 21 19 16 15 10 16 15 16 15 9 14 23 23 35 37 27 27 25 26 22 23 19 18 15 13 15 16 16 14 13 13 14 15 13 10 10 10 8 8 8 9
19 13 18 21 21 18 18 12 11 21 27 14 21 6 19 23 39 37 38 29 26 25 26 16 18 17 15 13 13 15 16 15 13 11 15 12 11 10 7 6 5 7 8 8
17 15 18 21 21 18 9 12 9 26 18 5 19 8 9 22 40 38 32 32 23 27 17 22 19 17 17 15 12 13 14 15 15 14 12 11 11 9 9 8 9 7 9 10
15 16 16 19 20 17 8 10 8 7 8 16 19 11 16 31 40 36 30 29 29 22 23 25 18 21 19 16 15 13 14 15 15 15 14 13 14 13 12 8 8 8 9 9
16 12 17 18 22 17 16 14 8 8 9 3 19 12 8 23 28 30 30 31 30 27 26 25 19 26 23 21 17 16 14 14 15 15 15 13 12 11 9 8 8 6 8 9
21 15 20 19 23 20 21 19 11 9 10 11 10 7 13 18 22 27 24 34 33 32 28 27 25 25 17 27 20 18 15 15 15 14 14 15 15 12 10 11 9 8 8 8
19 21 20 19 19 22 22 26 22 17 21 5 12 10 13 17 19 23 26 32 34 37 30 29 26 29 23 21 21 18 15 16 16 16 13 13 16 14 14 14 11 10 9 7
8 17 20 22 18 21 21 23 24 21 19 15 15 15 18 20 26 23 25 29 34 34 35 29 31 31 30 26 21 18 13 14 17 17 16 15 14 15 13 13 13 12 10 9
11 13 17 17 26 25 23 19 28 25 27 7 8 4 10 19 20 23 25 30 32 44 41 33 30 24 36 27 28 22 17 13 15 18 17 17 16 16 17 15 13 13 10 11
17 9 20 24 20 23 23 24 21 25 26 25 9 11 4 7 13 18 24 24 24 32 42 30 36 37 26 24 23 25 21 20 16 17 18 19 19 17 16 17 15 13 11 12
12 17 19 11 21 22 27 24 26 27 25 24 17 4 8 3 14 16 19 24 21 26 30 34 38 34 34 30 26 24 28 27 26 20 21 22 19 19 18 18 17 16 14 13
14 16 18 9 10 19 24 24 26 25 27 27 21 18 16 16 15 25 29 28 16 26 30 34 43 44 33 30 26 26 25 31 30 31 25 24 21 19 19 19 17 17 17 17
13 20 16 8 18 17 24 26 23 26 26 26 9 3 18 20 8 7 17 23 23 23 26 32 33 37 32 25 20 30 29 26 30 33 33 28 23 21 19 19 19 19 20 19
9 12 14 7 8 10 17 23 22 22 25 21 6 19 11 23 17 5 4 23 32 36 31 31 31 35 35 22 21 23 32 26 24 27 31 29 28 23 22 20 19 22 22 22
5 7 9 14 11 11 10 9 14 15 19 13 7 16 15 8 2 2 9 15 19 29 27 26 33 36 38 29 25 24 22 20 10 17 28 27 32 28 27 30 26 23 26 24
7 11 6 3 12 17 8 5 1 2 8 10 6 6 9 3 7 7 10 14 17 19 21 25 27 30 30 27 25 23 21 19 17 22 19 18 19 35 29 29 28 27 28 23
9 8 10 8 10 7 11 8 2 3 6 5 7 4 5 5 9 12 11 14 16 19 23 24 25 30 30 26 26 23 19 13 18 17 18 18 18 22 28 30 27 30 24 24
7 9 16 5 14 3 8 5 4 5 15 14 3 4 4 12 5 15 13 15 18 20 22 23 25 27 25 26 28 27 26 21 23 23 22 20 18 15 9 13 17 13 14 19
10 10 13 3 8 4 4 12 6 12 4 5 4 2 6 7 16 15 12 17 18 17 16 18 20 22 22 23 23 24 26 28 30 32 27 24 18 11 11 11 5 6 6 5
2 5 11 9 11 4 2 3 5 3 2 1 2 1 12 16 13 14 15 16 18 16 16 18 22 25 24 25 22 21 21 22 25 28 30 28 26 19 16 14 13 13 11 10
5 4 4 4 1 4 5 8 6 1 2 7 3 1 11 7 11 15 16 14 16 17 18 18 19 22 22 22 23 20 19 21 24 24 24 29 27 26 22 18 19 17 14 13
8 8 7 5 6 3 1 5 5 9 9 10 10 5 7 10 7 7 12 12 16 18 18 18 22 22 21 23 22 24 22 21 18 20 20 22 28 28 23 20 20 19 17 16
5 5 8 9 5 4 4 5 6 9 10 10 9 12 7 12 13 11 12 11 15 18 19 21 22 21 20 18 16 14 15 15 14 14 14 14 15 20 21 19 20 18 19 21
8 7 7 3 8 9 8 14 12 10 8 14 13 12 12 13 13 14 16 15 15 17 20 22 23 22 21 19 17 15 15 16 15 16 18 18 18 20 22 23 22 22 24 25
Wind_Direction
195 197 207 207 205 233 233 236 177 182 170 191 182 189 186 181 167 173 181 182 179 178 179 168 173 174 169 170 163 165 151 152 147 134 128 141 134 165 147 172 155 163 163 163
202 215 213 207 214 234 227 218 135 156 157 154 173 190 204 204 196 170 188 180 182 179 182 178 184 172 177 172 172 166 158 158 159 143 162 159 164 157 164 185 175 165 162 157
209 225 208 210 213 222 224 243 198 187 170 194 195 203 193 203 186 174 184 176 195 189 192 181 179 173 200 184 171 171 166 167 169 163 169 162 178 168 181 186 169 167 177 177
219 212 204 209 214 216 224 226 210 167 157 181 191 167 195 197 181 178 181 187 188 195 195 196 181 178 190 197 182 175 177 170 157 159 169 160 164 159 145 172 202 199 182 186
213 211 210 213 212 211 239 224 256 222 165 175 197 236 172 188 181 183 189 207 181 210 201 186 191 193 187 200 194 183 178 177 168 165 155 159 163 160 169 177 199 194 190 188
206 224 218 215 207 210 223 212 220 216 205 215 172 190 182 185 185 180 189 194 203 197 191 202 205 199 199 197 198 203 179 182 186 174 173 179 155 169 193 176 178 199 199 191
214 228 211 203 207 209 211 204 185 227 215 229 174 208 161 192 186 186 186 192 191 193 195 197 202 192 209 189 192 213 185 184 188 188 181 180 185 186 184 185 191 181 192 197
208 197 200 201 209 203 209 204 202 207 219 179 167 213 142 168 193 193 204 200 189 189 196 198 196 224 191 176 194 207 193 191 192 195 194 189 188 193 190 200 182 193 193 192
202 238 202 212 203 207 212 217 224 262 275 196 240 136 138 165 178 182 195 204 191 186 190 195 200 192 199 207 204 198 193 198 203 199 199 203 195 196 201 200 193 186 212 206
273 217 204 204 209 213 224 218 228 233 265 270 149 211 156 175 189 195 197 199 201 192 183 195 203 216 205 194 190 196 199 204 214 212 205 207 209 204 201 201 208 206 206 207
233 237 200 205 213 210 212 228 224 231 241 261 263 157 193 167 179 192 197 198 204 195 186 182 196 219 217 190 198 211 218 226 220 219 218 222 214 215 212 210 210 212 221 223
216 251 236 209 218 216 220 218 223 233 236 261 274 267 283 132 160 173 183 197 202 199 216 179 195 207 222 198 212 228 214 230 215 216 217 224 228 222 220 212 211 219 224 215
214 226 238 257 201 213 218 219 220 222 239 245 260 155 225 219 167 166 187 195 189 192 205 205 198 212 211 210 214 219 222 224 224 220 230 228 228 228 226 225 220 222 221 223
212 222 237 219 224 220 217 222 217 223 217 241 237 146 172 161 173 181 186 193 202 201 197 205 210 216 219 213 226 234 230 231 233 235 220 237 227 233 232 229 227 229 230 232
217 240 259 232 238 256 206 213 214 222 235 226 248 328 179 170 176 181 209 198 193 218 220 216 220 213 214 221 246 254 246 256 250 233 221 227 227 232 231 237 236 234 235 234
213 284 238 212 243 247 194 201 212 217 231 238 267 243 254 160 175 191 224 203 200 208 210 208 209 212 206 229 223 234 235 250 270 241 220 222 230 233 229 233 247 241 237 239
318 248 224 243 193 210 204 202 221 222 212 236 308 244 229 110 122 147 253 210 207 208 207 209 210 214 220 223 230 225 222 232 272 245 230 230 240 235 238 241 251 246 236 232
256 260 277 283 268 227 173 129 248 134 194 210 253 244 215 225 280 280 236 202 213 215 218 219 225 224 230 229 223 227 230 229 238 220 218 221 231 232 246 251 258 244 228 224
234 221 281 258 225 240 142 116 279 311 179 227 245 240 262 260 261 264 253 199 203 212 217 221 224 222 228 230 232 229 220 216 201 207 225 228 232 234 243 249 249 222 212 218
194 212 242 254 271 239 174 107 342 265 207 36 110 219 232 240 286 271 237 218 218 223 221 218 222 226 226 227 231 226 226 221 198 197 221 244 239 260 226 226 195 184 215 227
204 227 235 261 220 37 28 258 338 252 255 39 350 132 246 219 225 229 243 230 234 221 224 227 226 228 230 230 233 229 224 227 228 225 238 236 233 219 186 182 186 244 269 243
220 239 242 242 264 69 179 212 202 236 26 49 43 295 244 250 243 239 241 243 242 239 237 240 239 240 236 234 230 234 236 234 231 230 231 227 218 210 205 213 232 250 250 245
259 260 230 316 318 111 107 192 219 196 250 233 204 288 277 269 248 233 235 234 222 230 240 242 236 232 230 227 223 230 231 227 218 221 226 229 223 219 224 237 242 240 242 241
246 245 219 256 233 201 119 246 236 237 252 245 248 239 230 268 289 241 230 223 232 234 228 225 220 214 210 204 206 206 208 204 201 206 204 208 217 220 226 230 235 237 238 242
228 221 202 218 214 240 219 220 250 258 257 259 256 257 250 258 267 245 237 242 236 227 221 213 212 205 202 201 197 201 203 205 210 216 216 220 224 224 230 234 236 242 248 255
237 213 203 211 203 204 198 250 265 266 273 267 267 266 263 257 252 243 230 229 230 224 223 216 211 210 209 205 203 203 209 213 217 224 231 232 234 236 238 243 247 248 253 257